Regional Weather Roundup
Issued by NWS

Home | Current Version | Previous Version | Graphics & Text | Print | Product List | Glossary On
Versions: 1 2 3 4 5 6 7 8 9 10 11 12 13 14 15 16 17 18 19 20 21 22 23 24 25 26 27 28 29 30 31 32 33 34 35 36 37 38 39 40 41 42 43 44 45 46 47 48 49 50
024
ASUS43 KDMX 300208
RWRIA

WEATHER ROUNDUP FOR IOWA
NATIONAL WEATHER SERVICE DES MOINES IA
900 PM CDT MON AUG 29 2016

NOTE: "FAIR" INDICATES FEW OR NO CLOUDS BELOW 12,000 FEET WITH NO
SIGNIFICANT WEATHER AND/OR OBSTRUCTIONS TO VISIBILITY.

* - THESE STATIONS ARE NOT NWS STATIONS...THUS NOT UNDER NWS
QUALITY CONTROL.  THEY ALSO DO NOT REPORT WEATHER SUCH
AS PRECIPITATION OR FOG.

IAZ001>003-012>014-020>022-031>034-043>046-300300-
   NORTHWEST IOWA

CITY           SKY/WX    TMP DP  RH WIND       PRES   REMARKS
CARROLL *      LGT RAIN  70  70 100 CALM      30.17F
CHEROKEE *     CLOUDY    75  71  88 S12       30.17R
DENISON *      CLOUDY    68  68 100 SW5       30.15F
LE MARS *      CLOUDY    79  72  78 SE6       30.17R HX  82
ORANGE CITY *  CLOUDY    75  72  88 SE6       30.17R
SHELDON *      PTCLDY    73  72  94 S7        30.15S
SIOUX CITY     TSTM      70  66  87 SW21G28   30.19R
SPENCER        CLOUDY    72  68  87 SE6       30.17F
STORM LAKE *   CLOUDY    73  68  83 S8G15     30.18S
$$

IAZ055>058-069>071-079>083-090>094-300300-
   SOUTHWEST IOWA

CITY           SKY/WX    TMP DP  RH WIND       PRES   REMARKS
ATLANTIC *     CLOUDY    70  68  94 CALM      30.17F
AUDUBON *      LGT RAIN  72  68  88 CALM      30.18F
CLARINDA *       N/A     72  70  94 MISG      30.19R
COUNCIL BLFS * LGT RAIN  70  70 100 W8        30.23R
CRESTON *      CLOUDY    72  68  88 S13G21    30.23R FOG
HARLAN  *      LGT RAIN  70  70 100 CALM      30.20F
LAMONI         CLOUDY    72  69  90 N7        30.18R
RED OAK *      LGT RAIN  72  70  94 NE3       30.18R
SHENANDOAH *   DRIZZLE   73 -36   1 NW9       30.18R
$$

IAZ047>049-059>061-072>074-084-300300-
   CENTRAL IOWA

CITY           SKY/WX    TMP DP  RH WIND       PRES   REMARKS
AMES           CLOUDY    68  68 100 CALM      30.16F
ANKENY *         N/A    N/A N/A N/A MISG        N/A
BOONE *          N/A     70  68  94 S3        30.16S
CHARITON *       N/A     73  72  94 MISG      30.17R
DES MOINES     CLOUDY    75  70  84 NE5       30.16R
GRINNELL*      PTCLDY    69  68  96 E6        30.18R
KNOXVILLE *    CLOUDY    73  70  88 SE6       30.16R
MARSHALLTOWN   CLOUDY    69  69 100 N5        30.15F
NEWTON *       CLOUDY    72  70  94 E5        30.17R
PELLA *        PTCLDY    73  67  83 E12G22    30.19R
PERRY *          N/A     70  69  99 CALM      30.18R
$$

IAZ004>006-015-016-023>025-035-036-300300-
   NORTH CENTRAL IOWA

CITY           SKY/WX    TMP DP  RH WIND       PRES   REMARKS
ALGONA *       MOCLDY    72  70  94 SE5       30.17S
ESTHERVILLE    PTCLDY    71  70  96 S5        30.17S
FORT DODGE *   CLOUDY    72  66  83 S3        30.18S
MASON CITY     CLOUDY    68  67  96 S6        30.19S
FOREST CITY *    N/A    N/A N/A N/A MISG        N/A
WEBSTER CITY * CLOUDY    70  68  94 CALM      30.15F
IOWA FALLS *     N/A     69  67  93 CALM      30.18F
$$

IAZ007>011-017>019-026>030-037>042-050>054-066-300300-
   NORTHEAST IOWA

CITY           SKY/WX    TMP DP  RH WIND       PRES   REMARKS
CEDAR RAPIDS   LGT RAIN  72  72 100 S3        30.17R
CHARLES CITY * PTCLDY    72  72 100 CALM      30.18F FOG
CLINTON *      CLOUDY    71  70  96 CALM      30.18R
DECORAH *      CLOUDY    73  73 100 CALM      30.18S
DUBUQUE        MOCLDY    71  68  90 W5        30.19R
MONTICELLO *   CLOUDY    73  72  94 CALM      30.18R
OELWEIN *      CLOUDY    70  70 100 S3        30.18F
WATERLOO       CLOUDY    69  67  93 CALM      30.15F
$$

IAZ064-065-067-068-078-300300-
   EAST CENTRAL IOWA

CITY           SKY/WX    TMP DP  RH WIND       PRES   REMARKS
DAVENPORT      CLOUDY    73  71  93 E5        30.18R
IOWA CITY      CLOUDY    73  71  93 CALM      30.19R
MT. PLEASANT * LGT RAIN  75  75 100 W5        30.17R
QUAD CITIES    CLOUDY    75  72  90 N3        30.16R
$$

IAZ062-063-075>077-085>089-095>099-300300-
   SOUTHEAST IOWA

CITY           SKY/WX    TMP DP  RH WIND       PRES   REMARKS
BURLINGTON     CLOUDY    74  72  93 N7        30.16R
FAIRFIELD *    CLOUDY    72  66  83 NW7G15    30.18R
FORT MADISON * CLOUDY    73  72  94 CALM      30.17R
KEOKUK *       PTCLDY    77  73  88 CALM      30.15R
OSKALOOSA *    HVY RAIN  68  67  95 E8        30.22R
CENTERVILLE *    N/A     72  70  94 CALM      30.19R
OTTUMWA        TSTM      69  68  96 N10       30.21R FOG
WASHINGTON *   CLOUDY    73  72  94 CALM      30.18R
$$

ABBREVIATIONS USED IN REMARKS
   TC - TEMPERATURES IN CELSIUS
  WCI - WIND CHILL INDEX
   HX - HEAT INDEX
  VSB - VISIBILITY
$$





USA.gov is the U.S. government's official web portal to all federal, state and local government web resources and services.